Wind_Speed
27 28 22 23 28 32 32 31 29 28 26 29 29 35 28 35 69 76 71 75 70 69 69 66 66 66 67 63 58 57 52 48 44 40 39 35 34 34 36 36 33 31 33 36
30 29 27 28 28 31 32 32 29 27 30 31 28 33 32 36 48 68 75 78 72 70 69 69 65 65 68 61 61 59 55 51 45 44 42 39 37 38 39 39 38 38 38 39
28 24 27 31 31 28 30 28 27 29 28 35 38 35 34 35 51 79 80 80 75 71 69 69 64 63 65 63 68 63 60 52 50 48 46 44 43 44 45 46 46 44 42 45
24 25 29 31 29 28 31 28 28 31 32 33 26 40 34 27 36 65 77 78 77 71 69 68 65 64 61 64 59 65 61 57 53 50 49 48 48 49 49 50 47 46 48 45
22 33 33 34 29 27 31 29 32 32 35 37 37 40 31 23 28 50 73 77 73 68 66 67 65 63 58 71 66 68 62 59 56 54 51 48 52 55 53 54 51 46 40 41
36 33 37 34 30 28 29 31 32 34 35 40 31 32 33 29 28 35 63 74 72 68 63 63 65 61 61 67 72 70 65 62 55 57 42 45 47 48 45 37 34 34 32 29
37 31 28 27 29 28 27 27 31 36 38 30 17 28 25 23 32 30 38 71 72 66 62 61 64 62 62 64 70 66 64 59 52 43 46 45 45 44 38 31 31 26 22 22
31 24 30 30 27 29 28 29 37 40 31 27 21 29 22 17 26 32 38 68 71 66 61 63 62 59 62 67 67 69 62 56 51 50 47 47 46 38 30 29 23 17 16 13
33 32 32 33 33 30 33 36 30 32 30 32 24 28 28 28 28 32 38 66 71 68 67 64 59 68 64 69 67 65 59 55 51 44 46 46 39 31 28 24 16 14 13 12
35 36 31 28 31 25 22 22 25 31 37 35 35 34 33 19 27 36 31 69 75 72 67 66 71 72 71 73 67 66 61 52 45 44 41 37 34 27 25 19 16 15 13 13
32 32 25 27 15 12 16 21 24 26 31 28 26 24 35 37 36 30 33 65 76 74 66 67 74 69 42 65 69 64 59 50 49 40 38 37 29 25 21 18 18 16 15 15
29 33 26 21 15 21 21 18 20 23 18 28 26 30 31 37 40 38 37 66 77 71 66 72 71 66 39 78 68 61 53 47 39 37 37 34 28 23 22 20 19 17 15 15
25 27 29 17 14 16 23 15 12 15 19 20 27 31 31 33 40 45 42 66 78 70 71 76 73 47 56 52 59 51 45 40 36 37 34 30 25 24 22 21 18 17 16 17
23 22 16 14 11 14 13 15 18 20 19 17 25 20 29 32 48 43 63 70 75 68 75 77 76 63 34 47 49 48 43 40 37 33 30 27 24 24 23 19 19 19 18 19
23 16 11 10 14 17 17 16 17 13 23 24 10 25 21 37 46 56 77 64 52 73 75 74 62 68 51 53 49 45 38 37 34 27 24 24 25 25 22 20 20 19 20 20
21 12 10 15 14 15 13 13 18 20 22 22 24 6 38 36 45 65 73 56 59 73 74 65 51 51 53 49 42 36 35 33 28 25 22 22 22 22 21 20 20 20 20 22
18 9 8 14 16 16 9 27 32 24 25 27 26 30 49 30 59 69 69 57 65 68 67 63 55 52 47 43 36 32 34 29 24 22 20 21 21 22 21 20 20 21 22 25
12 11 14 12 18 21 27 31 32 21 11 16 19 55 42 59 69 75 48 63 62 60 64 58 54 50 44 37 34 35 31 25 23 22 20 20 20 18 18 18 19 22 25 28
13 11 13 13 17 21 29 31 17 10 21 35 37 41 32 66 79 51 54 58 57 56 56 54 51 47 41 39 38 31 27 24 22 20 19 17 15 15 16 19 22 24 26 27
9 9 11 7 15 25 28 26 15 27 39 24 37 39 40 70 64 57 61 60 58 57 53 51 47 46 43 39 33 28 24 22 19 18 16 14 15 17 19 22 23 25 24 23
11 9 9 9 14 22 31 17 15 34 18 34 42 41 45 63 55 57 61 60 58 56 51 48 47 43 37 32 27 23 22 21 19 17 15 17 19 19 21 23 26 23 23 25
14 11 9 11 16 25 24 14 37 25 35 42 29 51 44 52 55 60 61 59 55 51 49 46 42 38 32 27 26 25 22 20 18 19 20 21 20 22 25 25 22 22 23 25
13 12 9 10 19 26 22 20 36 29 34 37 43 51 53 53 54 56 57 55 54 51 47 44 39 33 29 28 26 24 22 19 22 23 23 22 24 28 21 20 21 21 24 26
12 10 4 10 23 24 24 15 37 33 37 33 43 53 54 53 52 50 53 51 48 47 44 38 34 32 29 27 25 23 23 24 24 24 24 27 26 20 19 20 24 24 23 24
9 6 6 14 17 17 23 13 40 41 44 42 49 55 55 55 50 47 41 43 45 43 38 35 32 30 29 27 26 27 28 28 27 30 30 23 20 22 23 24 22 22 22 22
3 6 8 14 16 17 21 14 32 46 46 45 48 52 52 53 51 43 40 38 37 37 36 35 34 33 31 31 28 27 28 33 35 25 20 23 25 24 24 21 21 20 19 20
Wind_Direction
293 297 304 287 276 278 273 270 266 250 246 262 262 255 245 236 225 221 221 220 214 214 213 215 214 214 215 214 211 218 223 227 229 236 236 240 244 251 251 256 261 273 279 285
296 304 304 290 288 290 281 273 268 259 259 254 265 260 255 237 222 218 218 215 211 212 212 214 213 211 215 212 209 215 219 223 227 231 234 241 251 255 256 258 263 268 275 284
289 298 285 295 292 289 284 271 267 255 251 253 253 250 255 252 237 219 216 215 210 211 209 211 214 212 212 208 210 213 215 222 225 229 235 242 250 254 256 256 260 267 276 281
295 290 295 296 293 281 275 273 265 264 255 257 250 269 256 252 240 228 219 214 210 211 207 207 210 212 210 207 210 215 221 217 222 228 234 242 249 253 255 256 261 272 278 283
307 300 301 300 290 272 275 267 265 260 262 266 261 259 261 244 245 232 218 213 210 211 210 206 206 211 206 206 210 216 216 219 220 230 233 240 248 252 257 255 267 280 279 279
301 298 298 299 290 283 277 269 269 263 261 264 279 259 255 235 224 233 221 212 208 208 209 205 205 207 206 206 210 216 218 221 224 227 234 246 249 257 264 259 273 272 279 285
309 308 303 306 297 291 277 271 269 269 263 271 269 254 271 248 225 222 227 206 206 206 206 200 203 203 205 206 207 210 217 224 230 239 243 249 252 259 263 268 269 277 277 282
312 311 302 303 293 285 269 262 258 263 267 276 270 250 269 247 214 221 220 203 203 204 203 200 200 202 208 207 205 210 212 217 223 231 239 245 253 255 261 261 266 265 261 306
314 308 305 300 293 288 277 263 267 261 265 253 242 258 231 224 222 229 220 197 197 199 201 194 195 203 198 200 203 206 207 212 221 228 239 243 248 252 253 254 253 247 264 288
313 307 308 304 300 290 282 264 256 251 258 256 261 247 248 241 238 228 224 199 191 196 198 188 196 207 201 194 198 201 207 211 220 226 236 240 244 246 246 242 235 246 264 281
310 309 321 319 298 315 276 263 272 261 258 259 258 245 231 221 219 228 224 196 190 194 193 186 199 209 235 193 195 202 205 208 219 226 233 236 240 239 230 226 233 248 261 274
314 318 324 319 293 314 268 263 259 254 263 259 251 231 233 219 209 212 217 195 188 192 186 188 195 202 202 180 192 199 199 210 216 224 230 235 235 230 221 227 236 248 264 279
325 331 332 329 322 313 313 259 305 300 264 256 245 250 234 240 202 208 192 186 186 186 185 190 192 206 187 173 186 197 200 205 213 226 233 233 228 222 225 232 244 257 268 279
331 332 329 324 341 345 315 305 304 308 271 252 253 254 228 208 201 196 181 179 184 189 188 187 193 195 178 178 192 196 199 205 216 228 228 227 222 222 229 241 253 262 272 280
333 332 327 346 346 353 345 317 281 260 243 239 259 312 217 197 186 179 173 170 183 184 186 189 188 196 194 187 191 194 197 212 220 219 217 217 218 223 232 245 257 265 274 281
339 340 333 7 354 350 324 345 291 263 277 285 293 251 173 158 179 173 167 173 181 181 187 189 193 187 191 195 192 194 208 218 217 217 214 214 216 225 237 248 258 266 274 283
340 341 357 9 353 314 319 318 327 315 281 277 281 171 169 179 156 168 169 174 177 182 184 183 185 190 191 196 194 204 213 216 216 217 215 218 225 233 243 250 259 266 276 284
339 340 348 349 343 340 326 338 323 315 275 248 195 178 180 152 164 170 176 173 175 179 179 179 185 188 190 193 202 207 208 209 210 210 210 216 226 236 245 253 264 274 279 281
349 339 345 356 348 340 339 343 43 87 136 135 142 158 146 161 170 159 159 164 166 170 175 179 180 185 188 195 199 200 203 206 206 208 213 221 232 245 255 260 267 272 278 281
347 343 354 356 342 350 348 18 112 130 138 137 154 160 160 168 169 155 157 157 164 169 174 175 179 185 190 193 195 198 204 207 211 214 222 231 242 246 253 260 269 278 273 273
345 347 341 329 360 347 12 31 135 146 148 138 142 163 157 165 167 161 156 163 167 169 172 177 185 189 189 192 197 204 208 213 224 231 236 240 245 255 258 264 274 265 277 283
334 330 323 344 10 8 22 118 151 133 138 144 177 140 143 156 165 164 162 165 166 170 176 182 188 190 193 199 206 208 213 219 225 232 237 243 251 255 258 264 266 277 279 281
337 346 347 28 27 11 23 139 164 139 170 159 143 142 148 158 166 168 169 169 169 173 181 188 192 197 203 207 211 213 217 222 227 233 239 243 251 258 257 269 272 278 279 280
338 343 38 53 42 24 20 114 170 145 144 140 143 144 150 160 168 175 175 177 179 182 189 195 200 200 204 207 210 214 219 224 226 230 237 244 245 250 259 265 270 270 275 284
5 40 95 72 55 18 30 123 166 153 151 149 152 150 153 163 170 177 181 185 188 191 191 198 200 199 202 202 210 216 220 225 231 229 229 233 243 248 254 260 263 269 280 288
43 85 109 91 64 18 28 137 156 157 153 157 157 157 158 162 174 180 180 183 184 185 188 192 198 199 202 208 213 223 232 244 227 217 227 236 241 245 251 257 267 276 284 293
Height
5674 5671 5669 5665 5664 5662 5661 5660 5661 5662 5661 5657 5656 5656 5658 5664 5673 5683 5696 5710 5725 5737 5751 5761 5771 5781 5791 5804 5816 5822 5828 5833 5838 5843 5847 5852 5855 5858 5861 5864 5866 5867 5867 5867
5667 5665 5662 5658 5657 5655 5652 5650 5650 5652 5654 5651 5650 5648 5649 5651 5654 5667 5679 5692 5710 5724 5738 5750 5760 5771 5780 5798 5808 5812 5820 5827 5833 5836 5841 5846 5850 5854 5857 5860 5859 5861 5861 5861
5662 5662 5657 5653 5650 5648 5643 5642 5642 5643 5644 5642 5639 5637 5642 5643 5646 5656 5664 5681 5700 5712 5726 5741 5753 5763 5773 5788 5798 5803 5810 5819 5824 5831 5837 5841 5845 5848 5852 5852 5854 5855 5856 5854
5657 5653 5650 5646 5643 5640 5634 5635 5633 5632 5632 5630 5635 5625 5630 5634 5635 5642 5656 5673 5689 5702 5716 5732 5744 5754 5767 5781 5788 5796 5804 5810 5818 5826 5832 5836 5840 5842 5845 5845 5847 5848 5849 5850
5653 5644 5641 5637 5634 5632 5628 5627 5625 5625 5623 5623 5621 5618 5619 5627 5629 5633 5649 5663 5680 5694 5709 5723 5736 5746 5761 5772 5781 5786 5795 5804 5812 5819 5825 5830 5833 5835 5838 5840 5842 5844 5844 5844
5640 5637 5631 5628 5625 5623 5621 5618 5617 5616 5615 5610 5613 5611 5610 5618 5622 5630 5636 5654 5672 5686 5700 5716 5729 5741 5753 5763 5770 5777 5789 5798 5804 5811 5818 5823 5827 5831 5833 5836 5839 5840 5839 5839
5630 5627 5622 5620 5617 5615 5612 5610 5607 5606 5603 5601 5606 5602 5605 5609 5616 5623 5629 5644 5661 5677 5690 5706 5719 5734 5744 5751 5760 5770 5783 5792 5799 5806 5811 5817 5821 5825 5829 5831 5834 5836 5836 5836
5623 5622 5616 5613 5610 5607 5603 5602 5599 5595 5595 5595 5599 5595 5599 5603 5605 5614 5618 5634 5653 5669 5684 5697 5714 5732 5739 5743 5752 5760 5772 5781 5792 5798 5806 5812 5816 5820 5824 5827 5829 5831 5832 5832
5617 5612 5607 5603 5599 5596 5593 5590 5593 5586 5586 5585 5589 5591 5592 5598 5601 5604 5606 5617 5639 5659 5669 5689 5715 5715 5721 5736 5747 5759 5765 5772 5784 5792 5799 5805 5811 5815 5819 5821 5824 5826 5828 5828
5609 5601 5601 5595 5588 5585 5582 5583 5582 5580 5577 5577 5579 5582 5586 5592 5596 5597 5599 5610 5629 5645 5663 5689 5697 5700 5681 5720 5741 5754 5761 5767 5778 5786 5793 5798 5803 5810 5813 5816 5819 5821 5823 5824
5601 5595 5594 5584 5580 5579 5576 5575 5573 5570 5569 5569 5571 5574 5569 5575 5580 5590 5596 5609 5623 5638 5661 5688 5688 5691 5690 5714 5733 5749 5754 5758 5770 5782 5789 5791 5798 5804 5808 5812 5814 5817 5820 5820
5594 5587 5583 5579 5576 5572 5568 5566 5564 5562 5563 5561 5560 5559 5559 5566 5572 5576 5587 5600 5618 5640 5663 5672 5683 5702 5694 5678 5723 5744 5746 5751 5769 5779 5783 5787 5794 5799 5804 5807 5811 5814 5815 5815
5590 5583 5577 5574 5572 5567 5564 5562 5559 5556 5554 5553 5552 5552 5555 5555 5562 5571 5578 5598 5619 5640 5659 5663 5674 5665 5693 5693 5719 5737 5738 5754 5767 5774 5778 5782 5789 5795 5800 5803 5806 5809 5810 5811
5585 5582 5576 5572 5569 5564 5560 5557 5554 5554 5551 5549 5545 5547 5549 5551 5556 5564 5578 5600 5622 5629 5648 5663 5678 5660 5684 5703 5717 5729 5738 5756 5763 5769 5773 5778 5785 5791 5796 5799 5802 5804 5805 5806
5583 5579 5574 5570 5566 5560 5557 5555 5552 5550 5547 5542 5544 5542 5541 5544 5551 5560 5581 5600 5612 5634 5647 5661 5668 5687 5701 5705 5714 5727 5742 5753 5759 5763 5768 5774 5782 5787 5791 5794 5797 5799 5801 5801
5580 5577 5572 5568 5564 5561 5557 5554 5552 5546 5542 5538 5536 5536 5534 5543 5549 5561 5576 5590 5612 5633 5648 5661 5672 5685 5701 5709 5717 5730 5743 5748 5752 5757 5763 5772 5778 5783 5787 5790 5792 5794 5795 5795
5577 5574 5570 5567 5564 5559 5556 5552 5544 5539 5535 5530 5530 5535 5533 5532 5552 5567 5585 5599 5617 5634 5651 5663 5677 5690 5699 5712 5720 5729 5738 5742 5747 5755 5762 5768 5774 5779 5783 5785 5788 5789 5790 5789
5578 5574 5569 5567 5563 5560 5555 5547 5537 5527 5522 5521 5524 5531 5534 5542 5568 5583 5589 5608 5623 5640 5651 5665 5678 5688 5699 5709 5718 5726 5733 5741 5748 5754 5760 5765 5771 5774 5778 5781 5783 5784 5784 5784
5578 5575 5571 5567 5563 5560 5551 5543 5533 5527 5524 5527 5533 5542 5550 5555 5568 5578 5597 5615 5632 5645 5657 5670 5682 5694 5705 5714 5722 5730 5736 5741 5747 5753 5759 5763 5767 5771 5774 5776 5777 5778 5778 5777
5579 5576 5572 5566 5563 5559 5551 5546 5542 5539 5539 5537 5544 5548 5543 5572 5583 5591 5607 5623 5637 5651 5662 5675 5686 5697 5708 5715 5722 5728 5734 5739 5745 5750 5755 5759 5764 5767 5769 5770 5771 5771 5771 5771
5578 5576 5573 5567 5564 5561 5554 5547 5546 5549 5547 5544 5552 5552 5565 5584 5602 5609 5619 5631 5644 5656 5668 5679 5689 5699 5707 5715 5721 5727 5732 5737 5742 5747 5752 5756 5759 5762 5763 5764 5765 5765 5765 5764
5579 5577 5573 5571 5567 5563 5558 5556 5553 5552 5557 5559 5560 5569 5584 5598 5609 5619 5628 5638 5649 5660 5672 5682 5691 5698 5707 5714 5720 5726 5730 5735 5740 5744 5747 5751 5754 5756 5757 5758 5759 5759 5758 5757
5580 5577 5575 5574 5571 5568 5563 5559 5562 5563 5568 5571 5570 5580 5592 5605 5617 5626 5635 5645 5653 5663 5673 5682 5691 5699 5705 5711 5718 5723 5727 5733 5737 5740 5743 5746 5748 5750 5752 5753 5753 5753 5752 5750
5580 5578 5577 5577 5573 5571 5567 5567 5568 5572 5578 5582 5584 5589 5599 5613 5624 5633 5641 5649 5657 5665 5674 5683 5691 5697 5703 5709 5715 5720 5724 5729 5733 5736 5738 5741 5743 5745 5747 5747 5747 5746 5746 5744
5583 5581 5580 5579 5577 5575 5570 5569 5573 5576 5582 5589 5596 5599 5607 5618 5628 5636 5644 5652 5659 5667 5675 5683 5690 5697 5702 5707 5713 5717 5720 5723 5727 5730 5732 5736 5739 5741 5741 5741 5741 5740 5739 5738
5584 5584 5584 5582 5580 5577 5575 5575 5576 5582 5588 5596 5602 5607 5614 5621 5633 5639 5646 5655 5662 5670 5677 5684 5690 5695 5701 5705 5709 5714 5717 5720 5721 5724 5728 5731 5734 5735 5736 5736 5736 5735 5734 5732